Location: ????????
(55.7667°N, 37.4833°E)
Time: 06:20:47
(UTC+00:00)

Cosmos 2237 Rocket - Pass Details

Date: 19 May 2025
Orbit: 834 x 849 km, 71.0° (Epoch: 15 June)

Event Time Altitude Azimuth Distance (km) Brightness Sun altitude
Rises 23:41:57 0° 324° (NW) 3,402 5.7 -9.0°
Reaches altitude 10° 23:44:27 10° 319° (NW) 2,465 4.9 -8.8°
Maximum altitude 23:49:53 50° 246° (WSW) 1,061 2.4 -8.4°
Drops below altitude 10° 23:55:19 10° 172° (S) 2,459 4.2 -8.0°
Sets 23:57:48 0° 168° (SSE) 3,393 4.9 -7.8°
